This is the latest recevied weather packets stored in our database for station/object EA1IQY-10. If no packets are shown the sender has not sent any weather packets the latest 10 day(s).
| Time | Temp. | Humidity | Pressure | Rain* | Wind** | Luminosity | Snow |
|---|---|---|---|---|---|---|---|
| 1777452126 | 20° C | 100% | 995.6 hPa | - | - | - | - |
| 1777451259 | 20° C | 100% | 995.7 hPa | - | - | - | - |
| 1777451226 | 20° C | 100% | 995.7 hPa | - | - | - | - |
| 1777450326 | 20.56° C | 100% | 995.9 hPa | - | - | - | - |
| 1777449426 | 19.44° C | 100% | 995.8 hPa | - | - | - | - |
| 1777448526 | 18.89° C | 100% | 995.7 hPa | - | - | - | - |
| 1777447626 | 17.22° C | 100% | 995.7 hPa | - | - | - | - |
| 1777446726 | 17.22° C | 100% | 995.6 hPa | - | - | - | - |
| 1777445826 | 19.44° C | 100% | 995.4 hPa | - | - | - | - |
| 1777444926 | 19.44° C | 100% | 995.4 hPa | - | - | - | - |
| 1777444025 | 15.56° C | 100% | 995.3 hPa | - | - | - | - |
| 1777443125 | 17.22° C | 100% | 995 hPa | - | - | - | - |
| 1777442225 | 20° C | 100% | 994.8 hPa | - | - | - | - |
| 1777441325 | 17.78° C | 100% | 994.6 hPa | - | - | - | - |
| 1777440425 | 20° C | 100% | 994.5 hPa | - | - | - | - |
| 1777439525 | 18.33° C | 100% | 994.5 hPa | - | - | - | - |
| 1777438625 | 17.22° C | 100% | 994.5 hPa | - | - | - | - |
| 1777437725 | 19.44° C | 100% | 994.5 hPa | - | - | - | - |
| 1777436824 | 18.33° C | 100% | 994.6 hPa | - | - | - | - |
| 1777435924 | 17.22° C | 100% | 994.7 hPa | - | - | - | - |
| 1777435024 | 20° C | 100% | 994.7 hPa | - | - | - | - |
| 1777434124 | 18.33° C | 100% | 994.8 hPa | - | - | - | - |
| 1777433224 | 18.89° C | 100% | 995 hPa | - | - | - | - |
| 1777432324 | 18.33° C | 100% | 995.1 hPa | - | - | - | - |
| 1777431424 | 17.22° C | 100% | 995.1 hPa | - | - | - | - |
* Rain since midnight (hover to see other rain measurements)
** Current wind speed in m/s (hover to see current wind gust speed)